NANOSATC-BR1

Last updated on Sat Aug 30 2025 00:03:48 GMT+0000 (Coordinated Universal Time)

1 40024U 14033Q 25240.96237061 .00019050 00000+0 88321-3 0 9997 2 40024 98.0939 244.5853 0006786 113.4907 246.7040 15.20104459609417
UTC large
Height (km)
Speed (km/s)
/
Latitude / Longitude
Inclination (degrees)
Orbital Period (minutes)
Azimuth
Elevation
Range (km)
Doppler Factor

Next 0 passes for location: London (51.5072 / 0.1276)

Sorry there are no passes over London.